Location: Overspoor
(51.4747°N, 5.6641°E)
Time: 14:43:15
(UTC+02:00)

RS-15 - Pass Details

Date: 26 June 2022
Orbit: 1881 x 2163 km, 64.8° (Epoch: 13 August)

Event Time Altitude Azimuth Distance (km) Brightness Sun altitude
Rises 02:29:50 0° 320° (NW) 5,699 11.0 -14.4°
Reaches altitude 10° 02:33:21 10° 317° (NW) 4,694 10.5 -14.3°
Maximum altitude 02:45:22 61° 242° (WSW) 2,361 8.2 -13.8°
Drops below altitude 10° 02:57:00 10° 166° (SSE) 4,547 9.4 -13.3°
Enters shadow 02:58:13 - 165° (SSE) 4,896 9.6 -13.2°
